Regional Weather Roundup
Issued by NWS State College, PA

Home | Current Version | Previous Version | Text Only | Print | Product List | Glossary Off
Versions: 1 2 3 4 5 6 7 8 9 10 11 12 13 14 15 16 17 18 19 20 21 22 23 24 25 26 27 28 29 30 31 32 33 34 35 36 37 38 39 40 41 42 43 44 45 46 47 48 49 50

000
ASUS41 KCTP 280810
RWRCTP

REGIONAL WEATHER ROUNDUP
NATIONAL WEATHER SERVICE STATE COLLEGE PA
400 AM EDT TUE APR 28 2015

Note: "fair" indicates few or no clouds below 12,000 feet with no
significant weather and/or obstructions to visibility.

* = STATION THAT DOES NOT REPORT PRECIPITATION /E.G. RAIN...SNOW...ETC/
    THUNDER OR FOG.

PAZ002>004-007>009-013>016-020>023-029>032-280900-
WESTERN PENNSYLVANIA

CITY           SKY/WX    TMP DP  RH WIND       PRES   REMARKS
ERIE           CLEAR     36  33  89 SW3       30.03S
MEADVILLE      CLEAR     39  34  82 N3        30.00F
FRANKLIN*      CLOUDY    39  34  81 NW5       30.01S
NEW CASTLE     CLOUDY    40  37  89 CALM      30.03F
BEAVER COUNTY  NOT AVBL
BUTLER*        CLEAR     37  34  87 NW3       30.02S
PITTSBURGH INT CLOUDY    41  36  82 NW5       30.01F
PITTSBURGH     CLOUDY    40  33  76 NW6       30.00S
INDIANA*       CLOUDY    41  37  87 W3        30.02S
LATROBE        MOCLDY    41  39  93 S3        30.02S
WASHINGTON CO* CLOUDY    39  34  81 CALM      30.04R
$$

PAZ004>006-010>012-017>019-024>028-033>037-041-042-045-046-049>053-280900-
CENTRAL PENNSYLVANIA

CITY           SKY/WX    TMP DP  RH WIND       PRES   REMARKS
BRADFORD       CLEAR     35  32  88 NW9       29.94S
DUBOIS         PTCLDY    40  35  83 NW7       29.95S
CLEARFIELD     PTCLDY    42  35  76 NW7       29.95R
JOHNSTOWN      CLOUDY    38  35  89 NW10      29.94S
ALTOONA        CLOUDY    43  35  73 NW8       29.94F
STATE COLLEGE  CLOUDY    43  36  74 CALM      29.92S
WILLIAMSPORT   CLOUDY    48  37  65 W9        29.88R
SELINSGROVE    CLOUDY    49  38  65 NW6       29.88S
FT INDIANTOWN  CLOUDY    49  37  62 NW9G18    29.84F
CAPITAL CITY   PTCLDY    48  36  63 W8        29.87F
HARRISBURG     MOCLDY    49  37  63 NW14      29.86F
YORK           CLOUDY    48  37  65 W8        29.87F
$$

PAZ038>040-043-044-047-048-054-055-060>062-067>071-280900-
EASTERN PENNSYLVANIA

CITY           SKY/WX    TMP DP  RH WIND       PRES   REMARKS
SCRANTON       CLOUDY    47  40  76 N8        29.83R
MOUNT POCONO   CLOUDY    42  38  85 N15G25    29.77S
ALLENTOWN      CLOUDY    50  40  68 VRB6      29.80R
QUAKERTOWN*    CLOUDY    48  39  71 N8G18     29.80R
READING        CLOUDY    49  38  65 W8        29.82S
LANCASTER      CLOUDY    47  38  71 NW8       29.84S
COATESVILLE    PTSUNNY   46  39  76 NW12      29.82S
POTTSTOWN      CLOUDY    48  39  71 W9        29.82R
BLUE BELL      CLOUDY    50  39  66 W3        29.79S
DOYLESTOWN     CLOUDY    48  39  71 NW8       29.78R
WILLOW GROVE   NOT AVBL
NORTH PHILA    MOCLDY    51  37  58 NW10      29.80R
PHILADELPHIA   CLOUDY    52  37  56 NW10      29.81R
$$


USA.gov is the U.S. government's official web portal to all federal, state and local government web resources and services.